GW0103 Weather Reports


Display with metric or nautical units.
time (UTC)temp
F
wind
direction
speed
MPH
gust
MPH
rain 1hr
in
rain 24hr
in
rain mn
in
humidity
%
barometer
mb
20260510220024 69 165 2.0 6.0 0.00 0.02 0.00 43 1007.5
20260510215021 69 244 2.0 6.0 0.00 0.02 0.00 45 1007.3
20260510214016 70 37 2.0 8.0 0.00 0.04 0.00 45 1007.4
20260510213032 70 261 3.0 8.0 0.00 0.06 0.00 47 1007.4
20260510212028 71 5 1.0 6.0 0.00 0.07 0.00 45 1007.2
20260510211022 71 58 2.0 6.0 0.00 0.08 0.00 49 1007.2
20260510210018 71 12 2.0 6.0 0.00 0.09 0.00 53 1007.2
20260510205037 70 88 1.0 3.0 0.00 0.12 0.00 52 1007.2
20260510204029 70 139 2.0 6.0 0.00 0.13 0.00 48 1007.1
20260510203024 71 32 2.0 6.0 0.00 0.13 0.00 52 1007.1
20260510202020 71 215 1.0 6.0 0.00 0.15 0.00 48 1007.1
20260510201036 71 1 2.0 4.0 0.00 0.16 0.00 51 1007.1
20260510200032 71 329 1.0 3.0 0.00 0.17 0.00 52 1007.0
20260510195030 69 5 2.0 4.0 0.00 0.19 0.00 62 1007.2
20260510194022 67 356 2.0 3.0 0.00 0.21 0.00 67 1007.2
20260510193017 68 5 2.0 4.0 0.00 0.22 0.00 66 1007.3
20260510192033 68 343 1.0 3.0 0.00 0.24 0.00 67 1007.4
20260510191028 68 12 3.0 8.0 0.00 0.26 0.00 69 1007.3
20260510190104 69 359 2.0 4.0 0.00 0.27 0.00 68 1007.3
20260510185020 69 332 2.0 9.0 0.00 0.29 0.00 66 1007.3
20260510184016 67 258 2.0 4.0 0.00 0.31 0.00 69 1007.5
20260510183053 64 355 1.0 4.0 0.00 0.32 0.00 74 1007.6
20260510182027 65 351 2.0 4.0 0.00 0.33 0.00 70 1007.6
20260510181023 68 220 2.0 6.0 0.00 0.35 0.00 58 1007.5
20260510180038 68 206 2.0 9.0 0.00 0.37 0.00 58 1007.3
20260510175034 68 167 2.0 3.0 0.00 0.39 0.00 61 1007.2
20260510174029 68 167 1.0 4.0 0.00 0.41 0.00 60 1007.1
20260510173044 68 122 3.0 7.0 0.00 0.43 0.00 66 1007.3
20260510172034 67 117 1.0 3.0 0.00 0.45 0.00 66 1007.5
20260510171029 67 136 1.0 4.0 0.00 0.47 0.00 66 1007.6
20260510170024 67 156 2.0 2.0 0.00 0.49 0.00 66 1007.7
20260510165021 66 153 1.0 3.0 0.00 0.50 0.00 67 1007.7
20260510164015 67 135 2.0 6.0 0.00 0.52 0.00 68 1007.9
20260510163032 66 201 2.0 6.0 0.00 0.53 0.00 66 1008.0
20260510162026 66 145 2.0 6.0 0.00 0.54 0.00 71 1008.0
20260510161023 64 138 1.0 3.0 0.00 0.55 0.00 73 1008.1
20260510160018 63 292 1.0 3.0 0.00 0.56 0.00 73 1008.1
20260510155035 63 123 1.0 2.0 0.00 0.56 0.00 76 1008.3
20260510154030 62 246 1.0 2.0 0.00 0.57 0.00 77 1008.3
20260510153024 62 219 1.0 3.0 0.00 0.59 0.00 76 1008.3
20260510152021 63 138 3.0 6.0 0.00 0.59 0.00 79 1008.3
20260510151016 62 124 1.0 2.0 0.00 0.61 0.00 79 1008.4
20260510150052 62 118 2.0 6.0 0.00 0.61 0.00 82 1008.3
20260510145028 60 85 0.0 2.0 0.00 0.62 0.00 83 1008.3
20260510144022 59 126 1.0 3.0 0.00 0.63 0.00 88 1008.4
20260510143018 58 122 2.0 4.0 0.00 0.63 0.00 91 1008.6
20260510142034 58 117 1.0 6.0 0.00 0.64 0.00 97 1008.7
20260510141028 57 114 2.0 6.0 0.00 0.64 0.00 99 1008.6
20260510140023 55 274 0.0 2.0 0.00 0.64 0.00 99 1008.7
20260510135059 55 128 1.0 2.0 0.00 0.65 0.00 99 1008.7
20260510134035 54 123 1.0 3.0 0.00 0.65 0.00 99 1008.6
20260510133032 53 0.0 0.0 0.00 0.65 0.00 99 1008.6
20260510132026 52 0.0 0.0 0.00 0.65 0.00 99 1008.8
20260510131022 51 0.0 0.0 0.00 0.65 0.00 99 1008.7
20260510130018 51 0.0 0.0 0.00 0.65 0.00 99 1008.8
20260510125035 50 0.0 0.0 0.00 0.65 0.00 99 1008.7
20260510124029 49 0.0 0.0 0.00 0.65 0.00 99 1008.8
20260510123024 49 0.0 0.0 0.00 0.65 0.00 99 1008.7
20260510122019 49 0.0 0.0 0.00 0.65 0.00 99 1008.6
20260510121036 48 0.0 0.0 0.00 0.65 0.00 99 1008.8
20260510120031 47 0.0 0.0 0.00 0.65 0.00 99 1008.9
20260510115026 47 0.0 0.0 0.00 0.65 0.00 99 1009.0
20260510114022 47 0.0 0.0 0.00 0.65 0.00 99 1008.9
20260510113018 47 0.0 0.0 0.00 0.65 0.00 99 1008.9
20260510112034 47 0.0 0.0 0.00 0.65 0.00 99 1008.7
20260510111030 46 0.0 0.0 0.00 0.65 0.00 99 1008.3
20260510110044 46 0.0 0.0 0.00 0.65 0.65 99 1008.2
20260510105020 46 0.0 0.0 0.00 0.65 0.65 99 1008.0
20260510104016 46 0.0 0.0 0.00 0.65 0.65 99 1007.9
20260510103033 46 0.0 0.0 0.00 0.65 0.65 99 1007.9
20260510102027 46 0.0 0.0 0.00 0.65 0.65 99 1007.8
20260510101102 46 0.0 0.0 0.00 0.65 0.65 99 1007.5
20260510100159 45 0.0 0.0 0.00 0.65 0.65 99 1007.3
20260510095035 45 0.0 0.0 0.00 0.65 0.65 99 1007.5
20260510094051 45 0.0 0.0 0.00 0.65 0.65 99 1007.5
20260510093025 45 0.0 0.0 0.00 0.65 0.65 99 1007.2
20260510092020 45 0.0 0.0 0.00 0.65 0.65 99 1007.5
20260510091016 45 0.0 0.0 0.00 0.65 0.65 99 1007.8
20260510090032 45 0.0 0.0 0.00 0.65 0.65 99 1007.5
20260510085027 45 0.0 0.0 0.00 0.65 0.65 99 1007.7
20260510084023 45 0.0 0.0 0.00 0.65 0.65 99 1007.6
20260510083018 45 0.0 0.0 0.00 0.65 0.65 99 1007.7
20260510082034 45 0.0 0.0 0.00 0.65 0.65 99 1007.8
20260510081030 45 0.0 0.0 0.00 0.65 0.65 99 1007.7
20260510080025 45 0.0 0.0 0.00 0.65 0.65 99 1007.4
20260510075020 45 0.0 0.0 0.00 0.65 0.65 99 1007.4
20260510074017 45 0.0 0.0 0.00 0.65 0.65 99 1007.6
20260510073053 45 32 0.0 1.0 0.00 0.65 0.65 99 1007.5
20260510072028 45 0.0 0.0 0.00 0.64 0.64 99 1007.7
20260510071023 45 41 0.0 2.0 0.00 0.64 0.64 99 1007.8
20260510070019 45 0.0 0.0 0.00 0.64 0.64 99 1007.9
20260510065036 45 0.0 0.0 0.00 0.64 0.64 99 1007.9
20260510064031 45 0.0 0.0 0.00 0.64 0.64 99 1007.6
20260510063025 45 0.0 0.0 0.00 0.64 0.64 99 1007.8
20260510062042 45 0.0 0.0 0.00 0.64 0.64 99 1007.8
20260510061017 45 0.0 0.0 0.00 0.64 0.64 99 1007.9
20260510060033 45 0.0 0.0 0.00 0.64 0.64 99 1007.8
20260510055028 45 0.0 0.0 0.00 0.64 0.64 99 1007.7
20260510054024 45 0.0 0.0 0.00 0.64 0.64 99 1008.0
20260510053039 45 0.0 0.0 0.00 0.64 0.64 99 1008.0
20260510052035 45 0.0 0.0 0.00 0.64 0.64 99 1008.1
20260510051032 45 0.0 0.0 0.00 0.64 0.64 99 1008.3
20260510050026 45 0.0 0.0 0.00 0.64 0.64 99 1008.3
20260510045021 45 0.0 0.0 0.00 0.64 0.64 99 1008.3
20260510044017 45 0.0 0.0 0.00 0.64 0.64 99 1008.2
20260510043033 45 0.0 0.0 0.00 0.64 0.64 99 1008.3
20260510042049 45 0.0 0.0 0.00 0.64 0.64 99 1008.3
20260510041044 45 0.0 0.0 0.00 0.64 0.64 99 1008.3
20260510040020 45 0.0 0.0 0.00 0.64 0.64 99 1008.2
20260510035035 45 0.0 0.0 0.00 0.64 0.64 99 1008.2
20260510034051 45 0.0 0.0 0.00 0.64 0.64 99 1008.4
20260510033026 45 0.0 0.0 0.00 0.64 0.64 99 1008.9
20260510032022 45 0.0 0.0 0.00 0.64 0.64 99 1008.7
20260510031058 45 0.0 0.0 0.00 0.64 0.64 99 1008.9
20260510030034 45 0.0 0.0 0.01 0.64 0.64 99 1009.1
20260510025029 45 0.0 0.0 0.01 0.64 0.64 99 1008.9
20260510024044 45 0.0 0.0 0.01 0.64 0.64 99 1008.9
20260510023020 45 0.0 0.0 0.01 0.64 0.64 99 1009.1
20260510022016 45 0.0 0.0 0.01 0.64 0.64 99 1009.0
20260510021032 45 0.0 0.0 0.01 0.63 0.63 99 1009.1
20260510020027 45 0.0 0.0 0.00 0.63 0.63 99 1009.1
20260510015023 45 0.0 0.0 0.00 0.63 0.63 99 1009.2
20260510014019 45 0.0 0.0 0.00 0.63 0.63 99 1009.3
20260510013034 45 0.0 0.0 0.00 0.63 0.63 99 1009.4
20260510012030 45 0.0 0.0 0.00 0.63 0.63 99 1009.3
20260510011024 45 0.0 0.0 0.00 0.63 0.63 99 1009.2
20260510010021 45 0.0 0.0 0.00 0.63 0.63 99 1009.2
20260510005036 45 0.0 0.0 0.00 0.63 0.63 99 1009.2
20260510004033 45 0.0 0.0 0.00 0.63 0.63 99 1009.0
20260510003048 45 0.0 0.0 0.00 0.63 0.63 99 1008.9
20260510002043 45 0.0 0.0 0.00 0.63 0.63 99 1008.9
20260510001018 45 0.0 0.0 0.00 0.63 0.63 99 1008.8
20260510000034 45 0.0 0.0 0.00 0.63 0.63 99 1008.8
20260509235030 45 0.0 0.0 0.00 0.63 0.63 99 1008.6
20260509234024 45 0.0 0.0 0.00 0.63 0.63 99 1008.7
20260509233020 45 0.0 0.0 0.00 0.63 0.63 99 1008.6
20260509232036 45 0.0 0.0 0.00 0.63 0.63 99 1008.5
20260509231053 45 0.0 0.0 0.00 0.63 0.63 99 1008.6
20260509230107 45 0.0 0.0 0.00 0.63 0.63 99 1008.6
20260509225023 45 0.0 0.0 0.00 0.63 0.63 99 1008.6
20260509224059 45 0.0 0.0 0.02 0.63 0.63 99 1008.5
20260509223034 45 0.0 0.0 0.04 0.63 0.63 99 1008.6
20260509222035 45 0.0 0.0 0.05 0.63 0.63 99 1008.6
20260509221024 45 0.0 0.0 0.06 0.63 0.63 99 1008.7